Regional Weather Roundup
Issued by NWS Portland, ME

Current Version | Previous Version | Text Only | Print | Product List | Glossary Off
Versions: 1 2 3 4 5 6 7 8 9 10 11 12 13 14 15 16 17 18 19 20 21 22 23 24 25 26 27 28 29 30 31 32 33 34 35 36 37 38 39 40 41 42 43 44 45 46 47 48 49 50
000 ASUS41 KGYX 202205 RWRGYX WEATHER ROUNDUP FOR MAINE AND NEW HAMPSHIRE NATIONAL WEATHER SERVICE GRAY ME 600 PM EDT THU JUL 20 2017 MEZ002-005-006-010-012-015-018-020-021-024-026-027-029-202300- MAINE CITY SKY/WX TMP DP RH WIND PRES REMARKS PORTLAND CLOUDY 75 66 73 S12 29.80F SANFORD N/A 74 72 93 S3 29.82F BAR HARBOR CLOUDY 73 63 70 S13 29.82S WISCASSET CLOUDY 78 66 66 S3 29.82F ROCKLAND CLOUDY 72 67 84 S3 29.81F FRYEBURG CLOUDY 84 66 54 CALM 29.81F LEWISTONAUBURN CLOUDY 80 70 71 SE6 29.80F AUGUSTA CLOUDY 80 66 62 S12 29.80F THUNDER WATERVILLE CLOUDY 79 70 74 CALM 29.78F THUNDER BANGOR CLOUDY 80 64 58 S9 29.80F GREENVILLE N/A 77 62 59 E3 29.82F MILLINOCKET MOSUNNY 83 62 49 CALM 29.80F HOULTON SUNNY 79 61 53 W5 29.78F PRESQUE ISLE CLOUDY 78 64 61 SW3 29.80F FRENCHVILLE CLOUDY 76 59 55 W7 29.81F CARIBOU CLOUDY 80 63 55 VRB3 29.79F $$ NHZ002-005-008-009-011-012-014-202300- NEW HAMPSHIRE CITY SKY/WX TMP DP RH WIND PRES REMARKS PORTSMOUTH PTSUNNY 79 67 66 SE9 29.80F ROCHESTER CLOUDY 78 70 76 S3 29.82F NASHUA CLOUDY 85 66 53 VRB5 29.82F MANCHESTER CLOUDY 86 58 38 W6 29.81F CONCORD CLOUDY 84 58 40 W9 29.82F LACONIA CLOUDY 79 72 79 S6 29.83F PLYMOUTH FAIR 81 63 54 CALM 29.82F BERLIN MOSUNNY 79 64 60 NW3 29.86F WHITEFIELD MOSUNNY 82 61 48 W5 29.85F JAFFREY CLOUDY 82 65 56 W5 29.87F KEENE MOSUNNY 82 67 60 CALM 29.85F LEBANON PTSUNNY 80 68 66 CALM 29.84F MT WASHINGTON PTSUNNY 57 50 77 W32G38 N/A $$ VTZ005-007-008-202300- VERMONT CITY SKY/WX TMP DP RH WIND PRES REMARKS ST JOHNSBURY N/A 82 66 58 MISG 29.83S MONTPELIER CLOUDY 79 59 50 NW7 29.91R BURLINGTON MOSUNNY 84 58 40 NW10 29.84R $$ MAZ007-012-024-CTZ003-RIZ002-NYZ038-NYZ072-202300- SOUTHERN NEW ENGLAND AND NY CITY SKY/WX TMP DP RH WIND PRES REMARKS BOSTON CLOUDY 89 67 47 W14G22 29.81F HX 92 WORCESTER PTSUNNY 83 66 56 W6 29.88F NANTUCKET MOSUNNY 76 72 87 SW12 29.87F PROVIDENCE PTSUNNY 87 69 54 SW12 29.85F HX 91 HARTFORD HVY RAIN 72 66 81 W6G33 29.87R ALBANY PTSUNNY 79 60 52 W8 29.86F NEW YORK CITY PTSUNNY 94 62 34 W14 29.85S HX 94 $$ ANZ081-ANZ082-ANZ150-NHZ014-MEZ023>029-202300- COASTAL MARINE OBSERVATIONS STATION/POSITION TIME TEMP WIND PRES WAVE AIR SEA DIR/SP/G HT/PER (UTC) (F) (DEG/KT/KT) (MB) (FT/S) MOUNT DESERT ROC 2100 69 1010.4F MATINICUS ROCK 2100 67 190/ 12/ 13 1010.0S ISLE OF SHOALS 2100 73 40/ 24/ 27 1009.7F JEFFREYS LEDGE 2106 67 N/A 1/15 CASHES LEDGE BUO 2150 71 69 1010.0F 2/14 GEORGES BANK BUO 2050 67 65 1012.2 3/ 5 $$ .............KEY.............. WCI - WIND CHILL TC - TEMPERATURE IN CELSIUS VSB - VISIBILITY IN MILES HX - HEAT INDEX FAIR- INDICATES FEW OR NO CLOUDS BELOW 12,000 FT, WITH NO SIGNIFICANT WEATHER AND/OR OBSTRUCTIONS TO VISIBILITY.

USA.gov is the U.S. government's official web portal to all federal, state and local government web resources and services.